QPF
0.05 0.03 0.04 0.03 0.02 0.03 0.04 0.04 0.04 0.03 0.02 0.02 0.03 0.03 0.04 0.12 0.22 0.13 0.08 0.10 0.09 0.09 0.10 0.10 0.13 0.13 0.11 0.09 0.06 0.05 0.05 0.12 0.14 0.13 0.12 0.11 0.12 0.11 0.09 0.08 0.08 0.10 0.10
0.04 0.03 0.04 0.04 0.02 0.02 0.03 0.03 0.04 0.03 0.05 0.07 0.06 0.05 0.07 0.05 0.13 0.12 0.09 0.10 0.08 0.08 0.08 0.08 0.11 0.12 0.10 0.08 0.07 0.06 0.06 0.12 0.14 0.12 0.11 0.11 0.13 0.14 0.12 0.09 0.09 0.10 0.09
0.03 0.03 0.03 0.03 0.02 0.02 0.01 0.02 0.04 0.04 0.02 0.05 0.07 0.05 0.05 0.04 0.03 0.04 0.04 0.04 0.04 0.04 0.04 0.05 0.07 0.08 0.09 0.08 0.07 0.07 0.07 0.08 0.10 0.11 0.08 0.07 0.08 0.14 0.13 0.09 0.09 0.11 0.10
0.02 0.02 0.03 0.03 0.02 0.01 0.01 0.01 0.02 0.04 0.03 0.03 0.04 0.03 0.03 0.04 0.03 0.03 0.04 0.02 0.02 0.03 0.03 0.03 0.05 0.07 0.08 0.07 0.08 0.08 0.09 0.09 0.07 0.05 0.04 0.05 0.05 0.13 0.18 0.12 0.12 0.13 0.15
0.01 0.01 0.02 0.03 0.01 0.01 0.01 0.01 0.01 0.02 0.04 0.04 0.03 0.02 0.03 0.04 0.04 0.03 0.04 0.04 0.04 0.04 0.05 0.06 0.05 0.06 0.08 0.08 0.07 0.08 0.09 0.08 0.06 0.04 0.04 0.04 0.04 0.12 0.19 0.17 0.15 0.18 0.21
0.01 0.00 0.01 0.02 0.01 0.01 0.01 0.01 0.01 0.01 0.02 0.02 0.02 0.02 0.02 0.03 0.04 0.04 0.04 0.03 0.03 0.04 0.04 0.06 0.07 0.06 0.08 0.11 0.10 0.08 0.08 0.07 0.03 0.02 0.05 0.08 0.06 0.11 0.11 0.12 0.12 0.18 0.22
0.00 0.00 0.01 0.02 0.02 0.02 0.02 0.02 0.01 0.01 0.02 0.01 0.01 0.01 0.02 0.02 0.03 0.04 0.05 0.05 0.04 0.04 0.04 0.04 0.08 0.07 0.08 0.11 0.14 0.10 0.09 0.06 0.03 0.01 0.03 0.05 0.06 0.10 0.11 0.12 0.12 0.16 0.21
0.01 0.01 0.01 0.02 0.02 0.02 0.01 0.01 0.01 0.01 0.01 0.01 0.01 0.01 0.02 0.02 0.02 0.04 0.06 0.06 0.06 0.06 0.05 0.05 0.07 0.11 0.11 0.17 0.17 0.12 0.08 0.05 0.03 0.02 0.02 0.03 0.08 0.12 0.15 0.15 0.14 0.13 0.14
0.02 0.01 0.01 0.01 0.01 0.02 0.01 0.01 0.01 0.01 0.01 0.01 0.02 0.02 0.02 0.01 0.02 0.03 0.06 0.08 0.09 0.10 0.13 0.16 0.20 0.21 0.21 0.21 0.15 0.11 0.08 0.04 0.04 0.02 0.02 0.05 0.11 0.16 0.18 0.19 0.15 0.11 0.12
0.01 0.01 0.01 0.00 0.00 0.01 0.01 0.01 0.01 0.01 0.01 0.02 0.02 0.02 0.02 0.01 0.01 0.02 0.06 0.11 0.15 0.15 0.21 0.31 0.37 0.30 0.19 0.14 0.11 0.10 0.13 0.09 0.07 0.05 0.05 0.09 0.14 0.17 0.19 0.21 0.16 0.11 0.11
0.01 0.01 0.01 0.00 0.00 0.00 0.00 0.00 0.01 0.01 0.01 0.01 0.01 0.01 0.01 0.01 0.01 0.01 0.02 0.06 0.11 0.14 0.16 0.22 0.27 0.19 0.10 0.07 0.07 0.06 0.13 0.17 0.13 0.07 0.05 0.09 0.13 0.14 0.16 0.16 0.12 0.09 0.09
0.01 0.01 0.01 0.00 0.00 0.00 0.00 0.00 0.00 0.00 0.00 0.00 0.00 0.00 0.00 0.00 0.00 0.00 0.01 0.02 0.04 0.06 0.07 0.11 0.13 0.10 0.07 0.06 0.05 0.04 0.06 0.11 0.10 0.05 0.06 0.12 0.14 0.14 0.15 0.14 0.10 0.08 0.07
0.01 0.01 0.00 0.00 0.00 0.00 0.00 0.00 0.00 0.00 0.00 0.00 0.00 0.00 0.00 0.00 0.00 0.00 0.00 0.00 0.01 0.02 0.03 0.04 0.07 0.06 0.05 0.04 0.04 0.04 0.05 0.05 0.07 0.08 0.09 0.13 0.14 0.14 0.13 0.11 0.08 0.06 0.05
0.00 0.00 0.00 0.00 0.00 0.00 0.00 0.00 0.00 0.00 0.00 0.00 0.00 0.00 0.00 0.00 0.00 0.00 0.00 0.00 0.00 0.01 0.01 0.02 0.02 0.02 0.02 0.02 0.02 0.03 0.03 0.04 0.05 0.08 0.10 0.11 0.10 0.11 0.12 0.11 0.08 0.06 0.06
0.01 0.01 0.00 0.00 0.00 0.00 0.01 0.00 0.00 0.00 0.00 0.00 0.00 0.00 0.00 0.00 0.00 0.00 0.00 0.00 0.00 0.01 0.01 0.01 0.01 0.00 0.01 0.01 0.01 0.02 0.02 0.01 0.01 0.02 0.05 0.06 0.07 0.08 0.09 0.07 0.06 0.05 0.05
0.00 0.00 0.00 0.00 0.00 0.00 0.00 0.00 0.00 0.00 0.00 0.00 0.00 0.00 0.00 0.00 0.00 0.00 0.00 0.00 0.00 0.00 0.00 0.01 0.01 0.01 0.01 0.01 0.01 0.02 0.02 0.01 0.01 0.01 0.01 0.02 0.03 0.04 0.06 0.06 0.05 0.04 0.04
0.00 0.00 0.00 0.00 0.00 0.00 0.00 0.00 0.00 0.00 0.00 0.00 0.00 0.00 0.00 0.00 0.00 0.00 0.00 0.00 0.00 0.00 0.00 0.00 0.00 0.01 0.01 0.01 0.02 0.02 0.02 0.01 0.01 0.00 0.00 0.01 0.01 0.01 0.03 0.04 0.05 0.04 0.03
0.01 0.00 0.00 0.00 0.00 0.00 0.00 0.00 0.00 0.00 0.00 0.00 0.00 0.00 0.00 0.00 0.00 0.00 0.00 0.00 0.00 0.00 0.00 0.00 0.00 0.00 0.01 0.01 0.01 0.01 0.01 0.01 0.01 0.01 0.01 0.01 0.01 0.01 0.01 0.03 0.04 0.03 0.03
0.01 0.01 0.00 0.00 0.00 0.00 0.00 0.00 0.00 0.00 0.00 0.00 0.00 0.00 0.00 0.00 0.00 0.00 0.00 0.00 0.00 0.00 0.00 0.00 0.00 0.00 0.00 0.00 0.01 0.01 0.01 0.01 0.01 0.01 0.02 0.03 0.02 0.01 0.01 0.02 0.03 0.03 0.04
0.02 0.01 0.01 0.00 0.00 0.00 0.00 0.00 0.00 0.00 0.00 0.00 0.00 0.00 0.00 0.00 0.00 0.00 0.00 0.00 0.00 0.00 0.00 0.00 0.00 0.00 0.00 0.00 0.00 0.00 0.00 0.01 0.01 0.01 0.02 0.03 0.03 0.03 0.02 0.03 0.03 0.02 0.02
0.03 0.02 0.01 0.01 0.00 0.00 0.00 0.00 0.00 0.00 0.00 0.00 0.00 0.00 0.00 0.00 0.00 0.00 0.00 0.00 0.00 0.00 0.00 0.00 0.00 0.00 0.00 0.00 0.00 0.00 0.00 0.01 0.01 0.01 0.02 0.04 0.05 0.05 0.04 0.04 0.04 0.03 0.02
0.04 0.03 0.02 0.01 0.00 0.00 0.00 0.00 0.00 0.00 0.00 0.00 0.00 0.00 0.00 0.00 0.00 0.00 0.00 0.00 0.00 0.00 0.00 0.01 0.01 0.00 0.00 0.00 0.00 0.00 0.00 0.00 0.01 0.01 0.02 0.03 0.04 0.05 0.06 0.06 0.06 0.05 0.03
0.04 0.04 0.04 0.02 0.01 0.01 0.00 0.00 0.00 0.00 0.00 0.00 0.00 0.00 0.00 0.00 0.00 0.00 0.00 0.00 0.00 0.00 0.01 0.01 0.01 0.00 0.00 0.00 0.00 0.00 0.00 0.00 0.01 0.02 0.02 0.04 0.04 0.04 0.07 0.06 0.06 0.05 0.03
0.02 0.02 0.04 0.04 0.03 0.02 0.01 0.00 0.00 0.00 0.00 0.00 0.00 0.00 0.00 0.00 0.00 0.00 0.00 0.00 0.00 0.00 0.01 0.01 0.00 0.00 0.00 0.00 0.00 0.00 0.00 0.00 0.00 0.01 0.02 0.03 0.03 0.04 0.06 0.08 0.06 0.05 0.04
0.03 0.02 0.03 0.07 0.08 0.04 0.01 0.01 0.01 0.00 0.00 0.00 0.00 0.00 0.00 0.00 0.00 0.00 0.00 0.00 0.00 0.00 0.01 0.00 0.00 0.00 0.00 0.00 0.00 0.00 0.00 0.01 0.01 0.01 0.01 0.02 0.03 0.04 0.06 0.07 0.07 0.07 0.05
0.04 0.03 0.03 0.05 0.15 0.11 0.03 0.02 0.01 0.01 0.01 0.00 0.00 0.00 0.00 0.00 0.00 0.00 0.01 0.01 0.01 0.00 0.01 0.00 0.01 0.00 0.00 0.00 0.00 0.00 0.00 0.00 0.01 0.01 0.01 0.01 0.02 0.03 0.04 0.04 0.05 0.05 0.05
MSLP
1014.80 1014.11 1013.56 1013.19 1013.01 1012.96 1012.98 1013.00 1012.95 1012.81 1012.60 1012.36 1012.16 1012.04 1012.05 1012.18 1012.43 1012.76 1013.11 1013.45 1013.76 1014.01 1014.22 1014.40 1014.56 1014.72 1014.87 1015.02 1015.16 1015.28 1015.36 1015.42 1015.45 1015.46 1015.45 1015.44 1015.42 1015.41 1015.38 1015.36 1015.33 1015.31 1015.29
1014.69 1014.08 1013.60 1013.30 1013.17 1013.14 1013.17 1013.18 1013.11 1012.97 1012.76 1012.54 1012.37 1012.29 1012.34 1012.52 1012.80 1013.15 1013.51 1013.85 1014.14 1014.37 1014.55 1014.69 1014.82 1014.94 1015.06 1015.17 1015.28 1015.38 1015.46 1015.52 1015.56 1015.60 1015.62 1015.63 1015.63 1015.61 1015.59 1015.56 1015.51 1015.47 1015.44
1014.46 1013.95 1013.56 1013.34 1013.26 1013.27 1013.31 1013.32 1013.25 1013.11 1012.91 1012.71 1012.56 1012.52 1012.60 1012.80 1013.10 1013.45 1013.80 1014.12 1014.38 1014.59 1014.75 1014.87 1014.98 1015.08 1015.18 1015.28 1015.37 1015.46 1015.54 1015.62 1015.70 1015.77 1015.82 1015.87 1015.89 1015.89 1015.86 1015.80 1015.73 1015.67 1015.61
1014.14 1013.73 1013.44 1013.30 1013.29 1013.34 1013.41 1013.43 1013.37 1013.22 1013.04 1012.85 1012.73 1012.71 1012.80 1013.00 1013.29 1013.61 1013.93 1014.23 1014.47 1014.66 1014.81 1014.94 1015.05 1015.15 1015.25 1015.35 1015.44 1015.54 1015.64 1015.75 1015.86 1015.97 1016.08 1016.16 1016.20 1016.20 1016.16 1016.08 1015.98 1015.87 1015.78
1013.77 1013.45 1013.27 1013.22 1013.27 1013.38 1013.47 1013.50 1013.45 1013.32 1013.14 1012.97 1012.86 1012.85 1012.94 1013.12 1013.37 1013.66 1013.94 1014.20 1014.43 1014.62 1014.78 1014.92 1015.06 1015.19 1015.31 1015.42 1015.54 1015.65 1015.78 1015.91 1016.06 1016.21 1016.35 1016.46 1016.51 1016.51 1016.45 1016.34 1016.20 1016.06 1015.93
1013.42 1013.20 1013.10 1013.14 1013.25 1013.40 1013.52 1013.56 1013.51 1013.39 1013.22 1013.07 1012.97 1012.95 1013.03 1013.19 1013.40 1013.64 1013.88 1014.11 1014.32 1014.52 1014.70 1014.89 1015.07 1015.24 1015.40 1015.54 1015.68 1015.81 1015.96 1016.12 1016.29 1016.46 1016.62 1016.74 1016.80 1016.78 1016.69 1016.55 1016.37 1016.18 1016.03
1013.17 1013.03 1013.01 1013.12 1013.28 1013.46 1013.58 1013.62 1013.57 1013.45 1013.30 1013.16 1013.07 1013.06 1013.12 1013.25 1013.43 1013.63 1013.83 1014.03 1014.23 1014.44 1014.66 1014.89 1015.12 1015.34 1015.54 1015.73 1015.89 1016.04 1016.19 1016.35 1016.53 1016.71 1016.86 1016.98 1017.02 1016.98 1016.86 1016.67 1016.45 1016.24 1016.06
1013.07 1012.99 1013.05 1013.20 1013.39 1013.57 1013.69 1013.71 1013.65 1013.53 1013.38 1013.26 1013.19 1013.19 1013.26 1013.38 1013.53 1013.68 1013.85 1014.02 1014.21 1014.43 1014.68 1014.95 1015.23 1015.51 1015.75 1015.97 1016.15 1016.30 1016.45 1016.60 1016.76 1016.92 1017.06 1017.14 1017.16 1017.09 1016.93 1016.72 1016.47 1016.23 1016.04
1013.13 1013.12 1013.22 1013.39 1013.59 1013.75 1013.84 1013.83 1013.75 1013.62 1013.49 1013.39 1013.36 1013.39 1013.47 1013.59 1013.72 1013.85 1013.98 1014.12 1014.30 1014.51 1014.78 1015.08 1015.41 1015.72 1016.01 1016.24 1016.43 1016.59 1016.72 1016.85 1016.97 1017.10 1017.20 1017.25 1017.23 1017.13 1016.94 1016.70 1016.44 1016.19 1016.00
1013.33 1013.36 1013.49 1013.68 1013.86 1013.98 1014.02 1013.98 1013.87 1013.73 1013.61 1013.55 1013.56 1013.63 1013.75 1013.88 1014.00 1014.11 1014.21 1014.32 1014.47 1014.68 1014.94 1015.26 1015.61 1015.95 1016.26 1016.51 1016.71 1016.85 1016.97 1017.06 1017.15 1017.23 1017.29 1017.31 1017.25 1017.13 1016.93 1016.68 1016.42 1016.18 1015.99
1013.59 1013.66 1013.82 1014.00 1014.15 1014.23 1014.21 1014.12 1013.98 1013.84 1013.74 1013.73 1013.78 1013.90 1014.06 1014.21 1014.34 1014.44 1014.51 1014.59 1014.70 1014.88 1015.13 1015.44 1015.79 1016.15 1016.47 1016.73 1016.93 1017.07 1017.17 1017.24 1017.30 1017.34 1017.36 1017.35 1017.28 1017.14 1016.95 1016.71 1016.46 1016.24 1016.07
1013.83 1013.94 1014.12 1014.29 1014.41 1014.43 1014.37 1014.24 1014.07 1013.93 1013.86 1013.88 1013.99 1014.16 1014.36 1014.54 1014.68 1014.77 1014.82 1014.87 1014.95 1015.09 1015.31 1015.60 1015.94 1016.29 1016.62 1016.90 1017.10 1017.24 1017.33 1017.38 1017.41 1017.43 1017.43 1017.40 1017.33 1017.20 1017.02 1016.81 1016.60 1016.41 1016.26
1013.98 1014.14 1014.33 1014.49 1014.58 1014.57 1014.46 1014.30 1014.12 1013.98 1013.93 1013.99 1014.14 1014.36 1014.60 1014.81 1014.96 1015.05 1015.09 1015.11 1015.16 1015.27 1015.46 1015.73 1016.05 1016.40 1016.73 1017.01 1017.22 1017.37 1017.45 1017.50 1017.52 1017.53 1017.52 1017.49 1017.42 1017.32 1017.18 1017.01 1016.84 1016.69 1016.57
1014.02 1014.21 1014.41 1014.57 1014.64 1014.61 1014.48 1014.30 1014.13 1014.00 1013.97 1014.06 1014.24 1014.49 1014.75 1014.99 1015.16 1015.25 1015.29 1015.31 1015.34 1015.44 1015.60 1015.85 1016.16 1016.49 1016.82 1017.10 1017.32 1017.48 1017.57 1017.62 1017.64 1017.65 1017.64 1017.61 1017.57 1017.49 1017.40 1017.28 1017.17 1017.06 1016.98
1013.95 1014.17 1014.37 1014.53 1014.60 1014.56 1014.44 1014.27 1014.11 1014.01 1014.00 1014.10 1014.29 1014.55 1014.82 1015.06 1015.25 1015.36 1015.42 1015.45 1015.50 1015.59 1015.76 1015.99 1016.29 1016.62 1016.94 1017.22 1017.45 1017.61 1017.72 1017.78 1017.80 1017.80 1017.80 1017.78 1017.75 1017.71 1017.66 1017.60 1017.54 1017.48 1017.44
1013.81 1014.03 1014.24 1014.40 1014.47 1014.46 1014.37 1014.24 1014.12 1014.04 1014.04 1014.15 1014.33 1014.57 1014.83 1015.07 1015.26 1015.39 1015.49 1015.56 1015.64 1015.77 1015.95 1016.20 1016.49 1016.81 1017.13 1017.41 1017.64 1017.81 1017.92 1017.98 1018.01 1018.01 1018.00 1017.99 1017.97 1017.95 1017.93 1017.92 1017.90 1017.90 1017.89
1013.65 1013.85 1014.06 1014.22 1014.32 1014.35 1014.32 1014.25 1014.18 1014.14 1014.16 1014.25 1014.40 1014.60 1014.82 1015.03 1015.23 1015.38 1015.52 1015.65 1015.80 1015.98 1016.20 1016.47 1016.78 1017.10 1017.41 1017.69 1017.92 1018.09 1018.20 1018.26 1018.28 1018.27 1018.25 1018.23 1018.21 1018.20 1018.20 1018.22 1018.24 1018.27 1018.31
1013.50 1013.68 1013.87 1014.04 1014.18 1014.27 1014.32 1014.33 1014.33 1014.33 1014.36 1014.43 1014.53 1014.67 1014.83 1015.01 1015.18 1015.37 1015.55 1015.75 1015.97 1016.22 1016.50 1016.80 1017.13 1017.45 1017.76 1018.03 1018.25 1018.42 1018.53 1018.59 1018.60 1018.58 1018.55 1018.51 1018.48 1018.46 1018.46 1018.49 1018.54 1018.61 1018.67
1013.37 1013.52 1013.70 1013.88 1014.06 1014.22 1014.36 1014.48 1014.56 1014.62 1014.66 1014.70 1014.75 1014.81 1014.89 1015.01 1015.16 1015.35 1015.58 1015.84 1016.14 1016.45 1016.79 1017.14 1017.48 1017.81 1018.11 1018.38 1018.60 1018.76 1018.88 1018.94 1018.95 1018.93 1018.88 1018.82 1018.76 1018.73 1018.73 1018.76 1018.82 1018.91 1019.00
1013.24 1013.37 1013.52 1013.72 1013.95 1014.20 1014.44 1014.66 1014.84 1014.96 1015.02 1015.04 1015.02 1015.01 1015.01 1015.06 1015.17 1015.36 1015.61 1015.92 1016.28 1016.66 1017.05 1017.42 1017.78 1018.11 1018.41 1018.67 1018.89 1019.07 1019.20 1019.27 1019.30 1019.28 1019.22 1019.15 1019.08 1019.02 1019.01 1019.03 1019.10 1019.20 1019.31
1013.07 1013.18 1013.33 1013.54 1013.82 1014.15 1014.50 1014.83 1015.11 1015.30 1015.40 1015.40 1015.33 1015.25 1015.17 1015.15 1015.22 1015.38 1015.64 1015.98 1016.37 1016.79 1017.21 1017.60 1017.97 1018.29 1018.59 1018.85 1019.08 1019.28 1019.44 1019.55 1019.61 1019.61 1019.56 1019.49 1019.41 1019.34 1019.31 1019.33 1019.39 1019.50 1019.62
1012.82 1012.93 1013.08 1013.32 1013.64 1014.05 1014.49 1014.93 1015.30 1015.57 1015.71 1015.72 1015.63 1015.49 1015.35 1015.27 1015.29 1015.42 1015.67 1016.01 1016.41 1016.84 1017.26 1017.65 1018.00 1018.32 1018.61 1018.88 1019.13 1019.36 1019.57 1019.73 1019.83 1019.88 1019.87 1019.81 1019.74 1019.67 1019.63 1019.64 1019.70 1019.81 1019.95
1012.47 1012.59 1012.76 1013.01 1013.38 1013.84 1014.37 1014.89 1015.36 1015.71 1015.90 1015.94 1015.85 1015.69 1015.52 1015.40 1015.37 1015.47 1015.70 1016.02 1016.40 1016.81 1017.21 1017.57 1017.90 1018.20 1018.48 1018.75 1019.03 1019.30 1019.56 1019.78 1019.96 1020.06 1020.10 1020.08 1020.03 1019.97 1019.94 1019.95 1020.01 1020.13 1020.27
1012.01 1012.17 1012.35 1012.63 1013.02 1013.53 1014.11 1014.71 1015.25 1015.68 1015.94 1016.03 1015.97 1015.82 1015.65 1015.52 1015.47 1015.55 1015.74 1016.03 1016.38 1016.74 1017.10 1017.42 1017.70 1017.97 1018.23 1018.51 1018.80 1019.12 1019.43 1019.73 1019.97 1020.14 1020.24 1020.26 1020.25 1020.21 1020.19 1020.21 1020.28 1020.40 1020.55
1011.48 1011.68 1011.89 1012.18 1012.59 1013.12 1013.73 1014.37 1014.98 1015.47 1015.81 1015.96 1015.97 1015.87 1015.73 1015.61 1015.57 1015.64 1015.81 1016.06 1016.36 1016.68 1016.97 1017.24 1017.48 1017.70 1017.94 1018.21 1018.52 1018.86 1019.22 1019.57 1019.87 1020.11 1020.26 1020.34 1020.36 1020.36 1020.36 1020.39 1020.47 1020.60 1020.76
1010.91 1011.17 1011.41 1011.71 1012.12 1012.64 1013.26 1013.93 1014.57 1015.12 1015.52 1015.76 1015.84 1015.81 1015.73 1015.66 1015.65 1015.72 1015.88 1016.11 1016.37 1016.63 1016.88 1017.08 1017.27 1017.45 1017.66 1017.92 1018.23 1018.58 1018.97 1019.36 1019.70 1019.98 1020.18 1020.31 1020.37 1020.40 1020.43 1020.48 1020.58 1020.71 1020.88
Thickness
5761 5765 5767 5768 5768 5769 5770 5771 5771 5772 5773 5773 5774 5774 5775 5776 5778 5777 5777 5777 5777 5778 5778 5778 5778 5779 5779 5779 5779 5779 5778 5778 5778 5777 5777 5776 5776 5776 5775 5775 5774 5774 5773
5763 5765 5766 5767 5767 5767 5768 5769 5769 5770 5770 5771 5771 5772 5773 5774 5774 5773 5773 5774 5774 5775 5775 5776 5775 5776 5776 5776 5776 5776 5776 5776 5775 5775 5775 5774 5774 5773 5773 5773 5773 5772 5772
5764 5764 5764 5765 5765 5766 5766 5767 5767 5768 5768 5769 5769 5770 5770 5770 5771 5771 5771 5771 5772 5772 5773 5773 5773 5773 5774 5774 5774 5774 5773 5773 5773 5773 5772 5772 5772 5772 5771 5771 5771 5771 5771
5763 5762 5762 5763 5764 5764 5764 5765 5765 5766 5766 5766 5767 5767 5767 5768 5768 5768 5768 5769 5769 5769 5769 5770 5770 5770 5771 5771 5771 5771 5771 5771 5770 5770 5769 5769 5769 5769 5770 5770 5770 5770 5769
5761 5761 5761 5761 5762 5762 5762 5763 5763 5764 5764 5764 5764 5764 5765 5765 5765 5765 5766 5766 5766 5766 5766 5767 5767 5767 5768 5768 5768 5768 5768 5767 5767 5767 5766 5766 5766 5767 5767 5768 5768 5768 5767
5760 5760 5760 5760 5760 5760 5760 5760 5761 5761 5762 5762 5762 5762 5762 5762 5763 5763 5763 5763 5763 5763 5763 5764 5764 5764 5764 5765 5764 5764 5764 5764 5764 5763 5763 5763 5764 5764 5765 5765 5766 5766 5764
5758 5759 5759 5758 5758 5758 5758 5758 5759 5759 5759 5759 5759 5759 5759 5759 5760 5760 5760 5760 5760 5760 5760 5760 5761 5761 5761 5761 5761 5761 5761 5760 5760 5759 5760 5760 5760 5761 5761 5761 5761 5761 5761
5758 5757 5757 5756 5756 5756 5756 5756 5756 5756 5756 5756 5756 5756 5756 5756 5757 5757 5757 5757 5757 5757 5757 5757 5757 5757 5757 5757 5757 5757 5757 5757 5757 5756 5757 5757 5757 5757 5757 5757 5757 5757 5757
5756 5755 5755 5754 5754 5754 5754 5754 5754 5754 5754 5753 5753 5753 5753 5753 5753 5753 5753 5753 5753 5753 5753 5753 5753 5753 5753 5753 5753 5753 5754 5753 5753 5753 5753 5753 5753 5753 5753 5753 5753 5752 5752
5753 5753 5753 5752 5752 5752 5751 5751 5751 5751 5750 5750 5750 5750 5750 5750 5750 5750 5750 5750 5749 5749 5749 5749 5750 5750 5749 5749 5749 5749 5749 5749 5749 5749 5749 5749 5750 5750 5749 5749 5749 5748 5748
5749 5750 5750 5750 5750 5750 5749 5749 5748 5748 5747 5747 5747 5747 5747 5746 5746 5746 5746 5746 5746 5745 5745 5744 5745 5745 5745 5745 5745 5744 5744 5744 5744 5744 5745 5745 5745 5745 5745 5745 5744 5744 5744
5745 5747 5748 5748 5748 5748 5748 5747 5746 5745 5744 5744 5744 5744 5743 5743 5743 5743 5742 5742 5742 5741 5741 5740 5740 5740 5740 5740 5740 5739 5739 5739 5739 5740 5740 5741 5741 5741 5740 5740 5740 5739 5739
5746 5746 5746 5747 5747 5746 5745 5745 5744 5743 5742 5741 5741 5741 5741 5740 5740 5739 5739 5738 5738 5737 5737 5736 5736 5735 5735 5735 5734 5734 5734 5733 5734 5735 5735 5736 5736 5736 5736 5735 5735 5734 5734
5745 5746 5746 5746 5745 5744 5744 5743 5742 5741 5740 5739 5739 5739 5738 5737 5736 5736 5735 5734 5734 5733 5733 5732 5731 5731 5731 5730 5730 5729 5729 5728 5729 5729 5730 5731 5731 5731 5731 5730 5730 5730 5729
5745 5745 5745 5745 5744 5743 5742 5741 5740 5739 5738 5737 5736 5736 5736 5734 5733 5732 5731 5731 5730 5729 5728 5727 5727 5726 5726 5726 5725 5725 5724 5723 5724 5724 5724 5725 5726 5725 5725 5725 5724 5724 5724
5745 5745 5745 5744 5743 5742 5740 5739 5738 5737 5736 5735 5734 5733 5733 5732 5730 5729 5728 5727 5726 5726 5725 5724 5723 5722 5721 5721 5720 5720 5719 5719 5718 5718 5719 5719 5720 5719 5719 5719 5719 5719 5718
5745 5746 5744 5743 5742 5740 5738 5737 5736 5735 5734 5733 5732 5731 5730 5729 5728 5727 5725 5724 5723 5722 5721 5720 5719 5718 5717 5716 5715 5715 5714 5714 5713 5713 5713 5713 5714 5714 5713 5713 5713 5713 5712
5745 5744 5744 5744 5740 5738 5737 5735 5734 5732 5731 5730 5729 5728 5727 5726 5725 5724 5722 5720 5720 5719 5717 5716 5714 5712 5710 5709 5708 5708 5708 5708 5708 5708 5708 5707 5707 5707 5707 5708 5707 5707 5707
5744 5743 5741 5740 5738 5736 5735 5733 5731 5730 5728 5727 5726 5725 5724 5723 5722 5721 5718 5717 5716 5714 5713 5712 5708 5707 5704 5703 5703 5702 5702 5702 5702 5702 5702 5701 5701 5701 5701 5702 5702 5702 5702
5743 5742 5739 5738 5736 5734 5733 5730 5728 5726 5725 5724 5723 5722 5721 5720 5719 5717 5715 5713 5712 5709 5707 5705 5703 5702 5700 5698 5698 5696 5695 5695 5696 5696 5695 5695 5695 5695 5695 5695 5696 5696 5696
5739 5738 5736 5734 5733 5731 5729 5726 5722 5720 5720 5720 5720 5719 5718 5717 5715 5713 5711 5709 5707 5704 5702 5700 5698 5695 5693 5693 5690 5687 5688 5689 5689 5689 5689 5689 5688 5688 5689 5689 5689 5690 5690
5736 5735 5734 5733 5731 5730 5728 5726 5723 5721 5718 5718 5717 5715 5714 5713 5711 5710 5707 5704 5702 5700 5697 5695 5693 5689 5687 5687 5684 5679 5675 5677 5680 5682 5682 5682 5682 5682 5683 5684 5684 5684 5684
5733 5733 5733 5731 5729 5728 5727 5724 5720 5717 5715 5713 5711 5711 5710 5709 5708 5706 5703 5701 5698 5696 5693 5691 5689 5685 5682 5681 5681 5676 5669 5666 5669 5672 5674 5675 5675 5675 5676 5677 5677 5678 5678
5731 5731 5731 5729 5727 5726 5724 5721 5717 5712 5708 5709 5708 5707 5706 5705 5704 5702 5700 5698 5695 5692 5690 5687 5685 5683 5680 5676 5675 5674 5672 5669 5664 5662 5665 5667 5668 5669 5669 5671 5671 5671 5671
5728 5727 5727 5726 5725 5723 5722 5719 5716 5711 5709 5707 5706 5704 5702 5701 5700 5698 5696 5694 5691 5689 5686 5684 5681 5679 5677 5673 5671 5669 5667 5664 5662 5658 5656 5658 5660 5661 5662 5663 5664 5665 5665
5725 5724 5723 5721 5721 5720 5719 5717 5714 5710 5707 5703 5701 5699 5697 5696 5695 5694 5692 5690 5688 5685 5682 5680 5678 5675 5673 5670 5668 5666 5663 5660 5657 5654 5651 5650 5651 5653 5656 5657 5658 5658 5658